Regional Weather Roundup
Issued by NWS

Home | Current Version | Previous Version | Graphics & Text | Print | Product List | Glossary On
Versions: 1 2 3 4 5 6 7 8 9 10 11 12 13 14 15 16 17 18 19 20 21 22 23 24 25 26 27 28 29 30 31 32 33 34 35 36 37 38 39 40 41 42 43 44 45 46 47 48 49 50
000
ASUS43 KOAX 240210
RWRNE

WEATHER ROUNDUP FOR NEBRASKA
NATIONAL WEATHER SERVICE OMAHA NE
900 PM CDT THU OCT 23 2014

NOTES: SATELLITE DATA IS BEING USED TO AUGMENT CLOUD COVER ABOVE
       12000 FEET.
       "FAIR" INDICATES FEW OR NO CLOUDS BELOW 12,000 FEET WITH NO
       SIGNIFICANT WEATHER AND/OR OBSTRUCTIONS TO VISIBILITY.

  * THESE STATIONS DO NOT REPORT WEATHER SUCH AS RAIN...SNOW OR FOG.

NEZ001>004-019>022-054>056-240300-
NEBRASKA PANHANDLE

CITY           SKY/WX    TMP DP  RH WIND       PRES   REMARKS
SCOTTSBLUFF    PTCLDY    53  35  50 E3        30.02R
ALLIANCE       PTCLDY    48  32  53 W8        29.99R
CHADRON        MOCLDY    46  38  73 W3        29.95R
KIMBALL        PTCLDY    51  33  48 CALM      30.07R
SIDNEY         PTCLDY    49  36  61 SW12      30.05R
$$

NEZ057>060-069>072-079>082-240300-
SOUTHWEST NEBRASKA

CITY           SKY/WX    TMP DP  RH WIND       PRES   REMARKS
NORTH PLATTE   PTCLDY    60  46  59 S10       29.99S
IMPERIAL       CLEAR     59  38  45 S8        30.02R
LEXINGTON      CLEAR     55  52  89 SE6       30.01R
MCCOOK           N/A     63  55  75 S12       30.02R
OGALLALA       CLEAR     53  37  53 CALM      30.00S
$$

NEZ005>010-023>029-035>040-094-240300-
NORTH CENTRAL NEBRASKA

CITY           SKY/WX    TMP DP  RH WIND       PRES   REMARKS
VALENTINE      MOCLDY    54  37  52 SW10      29.91F
AINSWORTH      MOCLDY    52  46  78 S9        29.92F
BROKEN BOW     PTCLDY    58  53  84 S5        29.99R
O`NEILL        CLOUDY    62  55  80 S10       29.95S
ORD            CLOUDY    56  53  90 S5        29.97S
THEDFORD       PTCLDY    58  38  46 S8        29.96F
$$

NEZ041-046>049-061>064-073>077-083>087-240300-
SOUTH CENTRAL NEBRASKA

CITY           SKY/WX    TMP DP  RH WIND       PRES   REMARKS
GRAND ISLAND   MOCLDY    57  55  93 S8        30.01F FOG
AURORA         MOCLDY    58  57  96 S7        30.01F
HASTINGS       MOCLDY    56  54  93 S8        30.02F FOG
HEBRON         MOCLDY    56  53  92 CALM      30.03F FOG
HOLDREGE       MOCLDY    53  51  95 CALM      30.01F FOG
KEARNEY *      CLOUDY    54  52  94 S8        30.02S
YORK           MOCLDY    57  55  94 S6        30.02F
$$

NEZ011>018-030>034-042>045-240300-
NORTHEAST NEBRASKA

CITY           SKY/WX    TMP DP  RH WIND       PRES   REMARKS
NORFOLK        MOCLDY    59  53  80 S10       29.98F
ALBION         MOCLDY    56  51  85 SE3       29.99F
BLAIR          CLEAR     59  50  74 S3        30.01F
COLUMBUS *     CLOUDY    55  46  71 CALM      30.02S
FREMONT        PTCLDY    59  46  63 SE6       30.01F
TEKAMAH        CLEAR     52  48  86 S8        30.00F
WAYNE          PTCLDY    53  47  79 S5        29.99S
$$

NEZ050>053-065>068-078-088>093-240300-
SOUTHEAST NEBRASKA

CITY           SKY/WX    TMP DP  RH WIND       PRES   REMARKS
LINCOLN        MOCLDY    58  52  80 SE6       30.02F
OMAHA EPPLEY   PTCLDY    56  50  80 SE7       30.02S
BEATRICE       MOCLDY    59  52  79 SE5       30.03S
FALLS CITY     CLEAR     61  54  77 S6        30.04S
NEBRASKA CITY  CLEAR     61  43  51 SE6       30.04S
PLATTSMOUTH    PTCLDY    60  46  57 SE6       30.03S
$$

NEZ044-045-051>053-067-240300-
OMAHA AREA

CITY           SKY/WX    TMP DP  RH WIND       PRES   REMARKS
OMAHA EPPLEY   PTCLDY    56  50  80 SE7       30.02S
BLAIR          CLEAR     59  50  74 S3        30.01F
FREMONT        PTCLDY    59  46  63 SE6       30.01F
MILLARD        CLEAR     55  53  92 CALM      30.02S
OFFUTT AFB     FOG       50  50 100 CALM      30.02S VSB 1
PLATTSMOUTH    PTCLDY    60  46  57 SE6       30.03S
WAHOO          FAIR      54  46  74 CALM      30.01F
$$



USA.gov is the U.S. government's official web portal to all federal, state and local government web resources and services.